Погода в Якиманской Слободе

Россия / Владимирская область     55°35′41″N   42°02′32″E
темп.,
°C
ветер,
м/с
пор.,
м/с
влажн.,
%
обл.,
%
осадки,
мм/ч
давл.,
гПа
погр.,
м
13 июня, вс
вс1300:00+15ю3393100 0.0 100857
03:00+14ю33956 0.0 100858
06:00+16ю249331 0.2 1007169
09:00+20ю358265 0.9 1007499
12:00+22ю456946 2.8 10071167
15:00+22ююз457498 5.3 10071021
18:00+21юз248012 1.3 1008555
21:00+16зюз338998 2.7 100939
14 июня, пн
пн1400:00+15юз339253 0.0 101037
03:00+14юз22938 0.0 101226
06:00+16юз22907 0.0 1013107
09:00+21ююз22745 0.0 1014541
12:00+24ююз22615 0.1 10141227
15:00+25ююв126178 0.6 1014837
18:00+24зсз117280 0.1 1014190
21:00+20юв117797 0.6 101411
15 июня, вт
вт1500:00+18ююв1286100 0.4 101411
03:00+18ю118895 0.7 101411
06:00+18ююв1187100 0.0 101417
09:00+22ссв117738 0.3 1014191
12:00+25вюв115516 1.6 10131063
15:00+26св225496 1.6 10111479
18:00+22в2376100 0.1 101088
21:00+19юв228646 0.1 101018
16 июня, ср
ср1600:00+17ююв229122 0.1 100911
03:00+16ююв229494 0.1 100915
06:00+18вюв118999 0.0 100981
09:00+22сз117497 0.0 1009431
12:00+25сз236598 0.8 1009962
15:00+22сз5780100 2.1 1010688
18:00+20с7128275 1.1 1012783
21:00+17ссз511820 1.1 1014361
17 июня, чт
чт1700:00+13ссз411850 0.0 1016225
03:00+12с410800 0.0 1018169
06:00+13ссз37780 0.0 1020198
09:00+18ссз57605 0.0 1022638
12:00+20с56480 0.0 10221444
15:00+21с56470 0.0 10231554
18:00+20с48650 0.0 1023524
21:00+15ссз35732 0.0 102573